Flag for Pakistan Weather past 2 weeks in Peshawar, Pakistan

Now
93 °F

Scattered clouds.


Feels Like: 93 °F
Forecast: 62 / 98 °F
Wind: 9 mph from South

Location: Peshawar Airport

Current Time: May 25, 2015 at 2:55:00 PM

Latest Report: May 25, 2015 at 2:00 PM


Visibility: 3 mi

Pressure: 29.53 "Hg

Humidity: 32%

Dew point: 59 °F

Location of PeshawarLocation

Historic Weather in Peshawar — Graph

°F

Peshawar temperature yesterday

Maximum temperature yesterday: 99 °F (at 3:00 PM)
Minimum temperature yesterday: 81 °F (at 2:00 AM)
Average temperature yesterday: 89 °F

Past Weeks' High & Low Weather Summary

 TemperatureHumidityPressure
High104 °F (May 21, 3:00 PM)88% (May 11, 2:00 PM)29.92 "Hg (May 11, 2:00 PM)
Low64 °F (May 13, 5:00 AM)23% (May 10, 6:00 PM)29.50 "Hg (May 23, 3:00 PM)
Average83 °F53%29.71 "Hg
* Reported May 10 2:00 PM — May 25 2:00 PM, Peshawar, Weather by CustomWeather, © 2015

Note: Actual official high and low records may vary slightly from our data, if they occured in-between our weather recording intervals... More about our weather records

Advertising

Peshawar weather history for previous 24 hours

 ConditionsComfort  
Time TempWeatherWind HumidityBarometerVisibility
2:00 PM
Mon, May 25
93 °FScattered clouds.9 mph32%29.53 "Hg3 mi
1:00 PM93 °FScattered clouds.7 mph24%29.56 "Hg3 mi
12:00 PM93 °FScattered clouds.12 mph24%29.59 "Hg3 mi
11:00 AM91 °FHaze.7 mph28%29.59 "Hg3 mi
10:00 AM90 °FHaze.9 mph29%29.59 "Hg3 mi
9:00 AM88 °FSunny.7 mph33%29.59 "Hg3 mi
8:00 AM82 °FHaze.5 mph42%29.59 "Hg2 mi
7:00 AM79 °FHaze.5 mph45%29.59 "Hg2 mi
6:00 AM77 °FHaze.5 mph47%29.59 "Hg2 mi
4:59 AM77 °FHaze.No wind47%29.59 "Hg2 mi
4:00 AM77 °FPassing clouds.7 mph47%29.59 "Hg2 mi
3:00 AM79 °FThundershowers. Partly cloudy.12 mph45%29.59 "Hg2 mi
2:00 AM81 °FThundershowers. Partly cloudy.9 mph42%29.59 "Hg2 mi
1:00 AM82 °FThundershowers. Partly cloudy.12 mph40%29.59 "Hg2 mi
12:00 AM82 °FThunderstorms. Partly cloudy.16 mph40%29.59 "Hg2 mi
10:00 PM
Sun, May 24
84 °FHaze.12 mph35%29.59 "Hg2 mi
9:00 PM86 °FHaze.12 mph33%29.59 "Hg2 mi
8:00 PM88 °FHaze.9 mph35%29.59 "Hg2 mi
7:00 PM91 °FHaze.12 mph32%29.56 "Hg2 mi
6:00 PM95 °FHaze.12 mph28%29.56 "Hg2 mi
5:00 PM97 °FScattered clouds.9 mph27%29.56 "Hg3 mi
4:00 PM99 °FScattered clouds.12 mph27%29.56 "Hg3 mi
3:00 PM99 °FScattered clouds.12 mph29%29.56 "Hg2 mi
2:00 PM97 °FScattered clouds.12 mph32%29.59 "Hg2 mi
Weather by CustomWeather, © 2015

See weather overviewHow to use our weather pages